Regional Weather Roundup
Issued by NWS Burlington, VT

Home | Current Version | Previous Version | Text Only | Print | Product List | Glossary On
Versions: 1 2 3 4 5 6 7 8 9 10 11 12 13 14 15 16 17 18 19 20 21 22 23 24 25 26 27 28 29 30 31 32 33 34 35 36 37 38 39 40 41 42 43 44 45 46 47 48 49 50
000
ASUS41 KBTV 230630
RWRBTV
VERMONT REGIONAL WEATHER ROUNDUP
NATIONAL WEATHER SERVICE BURLINGTON VT
200 AM EDT TUE MAY 23 2017

NOTE: "FAIR" INDICATES FEW OR NO CLOUDS BELOW 12,000 FEET WITH NO
SIGNIFICANT WEATHER AND/OR OBSTRUCTIONS TO VISIBILITY.

* THESE REPORTS ARE NOT UNDER NWS QUALITY CONTROL AND/OR DO NOT
  REPORT WEATHER SUCH AS PRECIPITATION AND FOG.

VTZ001>019-230700-
_____VERMONT_____


CITY           SKY/WX    TMP DP  RH WIND       PRES   REMARKS
BURLINGTON     CLOUDY    54  52  93 W5        29.95S
6HR MIN TEMP:  54; 6HR MAX TEMP:  57;

MONTPELIER     CLOUDY    48  48 100 CALM      29.97F
6HR MIN TEMP:  48; 6HR MAX TEMP:  49;

MORRISVILLE    CLOUDY    48  47  96 SW5       29.95S
6HR MIN TEMP:  48; 6HR MAX TEMP:  49; 6HR PCP:  0.01;

ST. JOHNSBURY*   N/A     49  47  93 MISG      29.93S
6HR MIN TEMP:  49; 6HR MAX TEMP:  50;

LYNDONVILLE*   CLOUDY    47  46  97 CALM      29.96S FOG
6HR MIN TEMP:  46; 6HR MAX TEMP:  47;

MIDDLEBURY*    FAIR      51  50  99 CALM      29.95F FOG
6HR MIN TEMP:  51; 6HR MAX TEMP:  55;

RUTLAND*       CLOUDY    51  51 100 CALM      29.96F
6HR MIN TEMP:  51; 6HR MAX TEMP:  52; 6HR PCP: TRACE;

SPRINGFIELD    CLOUDY    50  48  93 CALM      29.96S
6HR MIN TEMP:  50; 6HR MAX TEMP:  51;

HIGHGATE*      MOCLDY    52  48  85 SW3       29.93S
6HR MIN TEMP:  53; 6HR MAX TEMP:  55;

NEWPORT*       CLOUDY    48  47  97 SW7       29.94S
6HR MIN TEMP:  47; 6HR MAX TEMP:  48;

BENNINGTON     CLOUDY    55  52  89 W7        29.97S
6HR MIN TEMP:  54; 6HR MAX TEMP:  55;

SUTTON*          N/A     46 N/A N/A MISG        N/A
ISLAND POND*     N/A     48 N/A N/A NE1         N/A
GALLUP MILLS*    N/A     46 N/A N/A MISG        N/A
UNION VILLAGE*   N/A     48 N/A N/A MISG        N/A
MT. MANSFIELD*   N/A     43 N/A N/A W31G45      N/A

_____LAKE CHAMPLAIN_____


CITY           SKY/WX    TMP DP  RH WIND       PRES   REMARKS
BURTON ISLAND*   N/A     54  48  82 W8          N/A
COLCHESTER RF*   N/A     55  46  71 W12         N/A

$$

NYZ007-026>031-035-052-083-087-230700-
_____NORTHERN NEW YORK_____


CITY           SKY/WX    TMP DP  RH WIND       PRES   REMARKS
PLATTSBURGH    CLOUDY    51  47  86 CALM      29.94S
6HR MIN TEMP:  51; 6HR MAX TEMP:  58;

SARANAC LAKE   CLOUDY    47  46  97 SW7       29.94F
6HR MIN TEMP:  46; 6HR MAX TEMP:  51;

MASSENA        CLOUDY    52  48  86 SW7       29.93F
6HR MIN TEMP:  49; 6HR MAX TEMP:  61;

OGDENSBURG*    FAIR      52  47  83 SW7       29.93F
6HR MIN TEMP:  52; 6HR MAX TEMP:  60;

POTSDAM*       PTCLDY    50  48  93 SW7       29.93F
STARK FALLS*     N/A     50 N/A N/A SW7         N/A
WATERTOWN      CLEAR     48  45  89 SW5       29.96F
6HR MIN TEMP:  48; 6HR MAX TEMP:  54;

FT DRUM        CLEAR     47  42  83 SW6       29.95F
6HR MIN TEMP:  47; 6HR MAX TEMP:  55;

ALBANY         CLOUDY    56  47  71 NW7       29.99R
6HR MIN TEMP:  56; 6HR MAX TEMP:  58; 6HR PCP: TRACE;


$$
NHZ002-005-011-230700-
_____NEW HAMPSHIRE_____


CITY           SKY/WX    TMP DP  RH WIND       PRES   REMARKS
LEBANON        CLOUDY    51  49  92 CALM      29.95S FOG
6HR MIN TEMP:  51; 6HR MAX TEMP:  52;

KEENE          CLOUDY    52  50  93 CALM      29.95F
6HR MIN TEMP:  50; 6HR MAX TEMP:  51;

MT WASHINGTON  FOG       37  37 100 W49         N/A  VSB 0   WCI  22
6HR MIN TEMP:  37; 6HR MAX TEMP:  41;

PLYMOUTH       CLOUDY    48  47  95 CALM      29.96S
6HR MIN TEMP:  48; 6HR MAX TEMP:  48;

WHITEFIELD     CLOUDY    49  46  90 CALM      29.94S
6HR MIN TEMP:  49; 6HR MAX TEMP:  51; 6HR PCP:  0.01;


$$

_____REGIONAL QUEBEC LOCATIONS_____


CITY           SKY/WX    TMP DP  RH WIND       PRES   REMARKS
MONTREAL       PTCLDY    52  46  82 SW8       29.91R
QUEBEC CITY    DRIZZLE   52  50  93 SW2       29.82F
SHERBROOKE     CLOUDY    50  48  93 SW7       29.89F

_____REGIONAL ONTARIO LOCATIONS_____


CITY           SKY/WX    TMP DP  RH WIND       PRES   REMARKS
OTTAWA         MOCLDY    50  46  87 SW6       29.91F

______KEY______
VSB  - VISIBILITY IN MILES
WCI  - WIND CHILL INDEX
HX   - HEAT INDEX
$$
NNNN




USA.gov is the U.S. government's official web portal to all federal, state and local government web resources and services.